| time (UTC) | temp F | wind direction | speed knots | gust knots | rain 1hr in | rain 24hr in | rain mn in | humidity % | barometer mb |
| 20260504110520 | 43 | 135 | 0.9 | 1.7 | 0.00 | 0.00 | 0.00 | 89 | 1014.6 |
| 20260504100442 | 41 | 267 | 0.0 | 0.0 | 0.00 | 0.00 | 0.00 | 88 | 1014.5 |
| 20260504081835 | 0 | 0.0 | 0.0 | 0.00 | 0.00 | 0.00 | 1014.9 | ||
| 20260504081331 | 41 | 148 | 0.0 | 1.7 | 0.00 | 0.00 | 0.00 | 87 | 1014.7 |
| 20260504080827 | 41 | 148 | 0.0 | 1.7 | 0.00 | 0.00 | 0.00 | 87 | 1014.6 |
| 20260504080325 | 41 | 148 | 0.0 | 1.7 | 0.00 | 0.00 | 0.00 | 87 | 1014.7 |
| 20260504070252 | 40 | 188 | 0.0 | 0.0 | 0.00 | 0.00 | 0.00 | 87 | 1014.8 |
| 20260504060212 | 39 | 213 | 0.9 | 0.9 | 0.00 | 0.00 | 0.00 | 90 | 1015.1 |
| 20260504050640 | 37 | 276 | 0.0 | 0.0 | 0.00 | 0.00 | 0.00 | 88 | 1015.6 |
| 20260504050137 | 36 | 174 | 0.9 | 1.7 | 0.00 | 0.00 | 0.00 | 86 | 1015.3 |
| 20260504045634 | 36 | 174 | 0.9 | 1.7 | 0.00 | 0.00 | 0.00 | 86 | 1015.5 |
| 20260504045134 | 36 | 174 | 0.9 | 1.7 | 0.00 | 0.00 | 0.00 | 86 | 1015.4 |
| 20260504044632 | 36 | 174 | 0.9 | 1.7 | 0.00 | 0.00 | 0.00 | 86 | 1015.8 |
| 20260504044129 | 37 | 42 | 0.0 | 0.0 | 0.00 | 0.00 | 0.00 | 85 | 1015.5 |
| 20260504043626 | 37 | 42 | 0.0 | 0.0 | 0.00 | 0.00 | 0.00 | 85 | 1015.5 |
| 20260504043123 | 37 | 194 | 0.0 | 0.0 | 0.00 | 0.00 | 0.00 | 85 | 1015.5 |
| 20260504042620 | 37 | 195 | 0.0 | 0.0 | 0.00 | 0.00 | 0.00 | 85 | 1015.6 |
| 20260504042117 | 37 | 159 | 0.0 | 0.0 | 0.00 | 0.00 | 0.00 | 84 | 1015.3 |
| 20260504041613 | 38 | 251 | 0.0 | 0.0 | 0.00 | 0.00 | 0.00 | 83 | 1015.6 |
| 20260504041109 | 38 | 352 | 0.0 | 0.0 | 0.00 | 0.00 | 0.00 | 83 | 1015.2 |
| 20260504040607 | 38 | 211 | 0.0 | 0.9 | 0.00 | 0.00 | 0.00 | 83 | 1015.3 |
| 20260504040103 | 38 | 354 | 0.0 | 0.0 | 0.00 | 0.00 | 0.00 | 82 | 1015.3 |
| 20260504035600 | 38 | 197 | 0.0 | 0.0 | 0.00 | 0.00 | 0.00 | 81 | 1015.3 |
| 20260504035056 | 39 | 166 | 0.0 | 0.0 | 0.00 | 0.00 | 0.00 | 81 | 1015.4 |
| 20260504034554 | 39 | 159 | 0.0 | 0.0 | 0.00 | 0.00 | 0.00 | 80 | 1015.3 |
| 20260504034051 | 39 | 14 | 0.0 | 0.0 | 0.00 | 0.00 | 0.00 | 80 | 1015.2 |
| 20260504033549 | 39 | 52 | 0.0 | 0.0 | 0.00 | 0.00 | 0.00 | 79 | 1015.4 |
| 20260504033046 | 39 | 356 | 0.0 | 1.7 | 0.00 | 0.00 | 0.00 | 80 | 1015.4 |
| 20260504032543 | 39 | 356 | 0.0 | 0.9 | 0.00 | 0.00 | 0.00 | 79 | 1015.2 |
| 20260504032040 | 39 | 168 | 0.9 | 1.7 | 0.00 | 0.00 | 0.00 | 78 | 1015.4 |
| 20260504031537 | 40 | 180 | 0.9 | 1.7 | 0.00 | 0.00 | 0.00 | 76 | 1015.0 |
| 20260504031033 | 41 | 265 | 0.0 | 0.0 | 0.00 | 0.00 | 0.00 | 75 | 1015.2 |
| 20260504030530 | 40 | 279 | 0.0 | 0.9 | 0.00 | 0.00 | 0.00 | 75 | 1015.2 |
| 20260504030026 | 40 | 324 | 0.0 | 1.7 | 0.00 | 0.00 | 0.00 | 76 | 1015.1 |
| 20260504025524 | 40 | 174 | 0.0 | 0.9 | 0.00 | 0.00 | 0.00 | 74 | 1015.2 |
| 20260504025020 | 40 | 194 | 0.0 | 0.9 | 0.00 | 0.00 | 0.00 | 74 | 1015.1 |
| 20260504024517 | 41 | 195 | 0.0 | 0.0 | 0.00 | 0.00 | 0.00 | 69 | 1015.0 |
| 20260504024014 | 41 | 180 | 0.0 | 0.9 | 0.00 | 0.00 | 0.00 | 70 | 1015.1 |
| 20260504023511 | 42 | 349 | 0.0 | 0.0 | 0.00 | 0.00 | 0.00 | 68 | 1015.0 |
| 20260504023007 | 42 | 349 | 0.0 | 0.0 | 0.00 | 0.00 | 0.00 | 67 | 1014.9 |
| 20260504022502 | 42 | 353 | 0.9 | 0.9 | 0.00 | 0.00 | 0.00 | 67 | 1014.8 |
| 20260504021959 | 42 | 358 | 0.0 | 0.9 | 0.00 | 0.00 | 0.00 | 66 | 1014.9 |
| 20260504021457 | 42 | 354 | 0.0 | 0.0 | 0.00 | 0.00 | 0.00 | 66 | 1014.7 |
| 20260504020954 | 42 | 162 | 0.0 | 0.0 | 0.00 | 0.00 | 0.00 | 66 | 1014.7 |
| 20260504020450 | 42 | 26 | 0.0 | 0.0 | 0.00 | 0.00 | 0.00 | 66 | 1014.6 |
| 20260504015947 | 43 | 159 | 0.0 | 0.0 | 0.00 | 0.00 | 0.00 | 65 | 1014.6 |
| 20260504015443 | 44 | 156 | 0.0 | 0.0 | 0.00 | 0.00 | 0.00 | 63 | 1014.5 |
| 20260504014939 | 44 | 168 | 0.0 | 0.9 | 0.00 | 0.00 | 0.00 | 61 | 1014.5 |
| 20260504014435 | 45 | 251 | 0.0 | 0.0 | 0.00 | 0.00 | 0.00 | 61 | 1014.4 |
| 20260504013932 | 45 | 251 | 0.0 | 0.0 | 0.00 | 0.00 | 0.00 | 58 | 1014.6 |
| 20260504013431 | 45 | 251 | 0.0 | 0.0 | 0.00 | 0.00 | 0.00 | 57 | 1014.5 |
| 20260504012927 | 45 | 250 | 0.0 | 1.7 | 0.00 | 0.00 | 0.00 | 56 | 1014.4 |
| 20260504012425 | 46 | 170 | 0.0 | 0.9 | 0.00 | 0.00 | 0.00 | 57 | 1014.3 |
| 20260504011922 | 46 | 174 | 0.0 | 0.0 | 0.00 | 0.00 | 0.00 | 53 | 1014.2 |
| 20260504011419 | 46 | 159 | 0.0 | 0.0 | 0.00 | 0.00 | 0.00 | 53 | 1014.1 |
| 20260504010914 | 47 | 166 | 0.0 | 0.0 | 0.00 | 0.00 | 0.00 | 53 | 1014.2 |
| 20260504010411 | 48 | 166 | 0.0 | 0.0 | 0.00 | 0.00 | 0.00 | 51 | 1014.1 |
| 20260504005907 | 48 | 179 | 0.0 | 0.0 | 0.00 | 0.00 | 0.00 | 51 | 1014.1 |
| 20260504005404 | 49 | 331 | 0.0 | 0.0 | 0.00 | 0.00 | 0.00 | 48 | 1014.0 |
| 20260504004901 | 49 | 331 | 0.0 | 0.0 | 0.00 | 0.00 | 0.00 | 47 | 1014.1 |
| 20260504004359 | 50 | 248 | 0.0 | 0.0 | 0.00 | 0.00 | 0.00 | 47 | 1014.3 |
| 20260504003855 | 50 | 248 | 0.0 | 0.0 | 0.00 | 0.00 | 0.00 | 46 | 1014.1 |
| 20260504003352 | 51 | 353 | 0.0 | 0.0 | 0.00 | 0.00 | 0.00 | 43 | 1014.0 |
| 20260504002849 | 52 | 332 | 0.0 | 0.0 | 0.00 | 0.00 | 0.00 | 40 | 1013.8 |
| 20260504002346 | 52 | 277 | 0.0 | 0.0 | 0.00 | 0.00 | 0.00 | 40 | 1013.9 |
| 20260504001843 | 53 | 339 | 0.0 | 0.0 | 0.00 | 0.00 | 0.00 | 39 | 1013.9 |
| 20260504001340 | 54 | 342 | 0.0 | 0.0 | 0.00 | 0.00 | 0.00 | 37 | 1013.8 |
| 20260504000837 | 55 | 340 | 0.0 | 0.9 | 0.00 | 0.00 | 0.00 | 36 | 1014.0 |
| 20260504000334 | 56 | 251 | 0.0 | 0.0 | 0.00 | 0.00 | 0.00 | 34 | 1014.1 |
| 20260503235832 | 56 | 317 | 0.0 | 0.9 | 0.00 | 0.00 | 0.00 | 33 | 1013.9 |
| 20260503235329 | 57 | 159 | 0.0 | 0.0 | 0.00 | 0.00 | 0.00 | 32 | 1013.8 |
| 20260503234826 | 59 | 67 | 0.0 | 0.0 | 0.00 | 0.00 | 0.00 | 31 | 1013.9 |
| 20260503234324 | 60 | 226 | 0.0 | 0.9 | 0.00 | 0.00 | 0.00 | 29 | 1013.7 |
| 20260503233822 | 60 | 289 | 0.0 | 0.9 | 0.00 | 0.00 | 0.00 | 29 | 1013.8 |
| 20260503233317 | 60 | 310 | 0.9 | 1.7 | 0.00 | 0.00 | 0.00 | 28 | 1013.5 |
| 20260503232814 | 60 | 272 | 0.9 | 2.6 | 0.00 | 0.00 | 0.00 | 27 | 1013.8 |
| 20260503232312 | 60 | 347 | 1.7 | 1.7 | 0.00 | 0.00 | 0.00 | 27 | 1013.6 |
| 20260503231810 | 61 | 290 | 1.7 | 1.7 | 0.00 | 0.00 | 0.00 | 28 | 1013.6 |
| 20260503231306 | 61 | 336 | 1.7 | 1.7 | 0.00 | 0.00 | 0.00 | 26 | 1013.7 |
| 20260503230802 | 61 | 324 | 2.6 | 3.5 | 0.00 | 0.00 | 0.00 | 25 | 1013.6 |
| 20260503230259 | 61 | 337 | 1.7 | 4.3 | 0.00 | 0.00 | 0.00 | 26 | 1013.6 |
| 20260503225757 | 61 | 357 | 2.6 | 3.5 | 0.00 | 0.00 | 0.00 | 27 | 1013.5 |
| 20260503225252 | 62 | 273 | 2.6 | 4.3 | 0.00 | 0.00 | 0.00 | 26 | 1013.4 |
| 20260503224749 | 63 | 15 | 2.6 | 2.6 | 0.00 | 0.00 | 0.00 | 26 | 1013.3 |
| 20260503224247 | 63 | 343 | 1.7 | 1.7 | 0.00 | 0.00 | 0.00 | 25 | 1013.3 |
| 20260503223744 | 63 | 318 | 3.5 | 3.5 | 0.00 | 0.00 | 0.00 | 26 | 1013.3 |
| 20260503223242 | 63 | 353 | 1.7 | 2.6 | 0.00 | 0.00 | 0.00 | 26 | 1013.5 |
| 20260503222737 | 63 | 312 | 5.2 | 7.8 | 0.00 | 0.00 | 0.00 | 24 | 1013.5 |
| 20260503222236 | 63 | 359 | 3.5 | 3.5 | 0.00 | 0.00 | 0.00 | 24 | 1013.5 |
| 20260503221734 | 63 | 332 | 2.6 | 3.5 | 0.00 | 0.00 | 0.00 | 26 | 1013.4 |
| 20260503221231 | 64 | 305 | 0.9 | 1.7 | 0.00 | 0.00 | 0.00 | 25 | 1013.7 |
| 20260503220727 | 64 | 312 | 1.7 | 2.6 | 0.00 | 0.00 | 0.00 | 26 | 1013.5 |
| 20260503220225 | 63 | 325 | 1.7 | 2.6 | 0.00 | 0.00 | 0.00 | 26 | 1013.7 |
| 20260503215721 | 63 | 349 | 4.3 | 7.8 | 0.00 | 0.00 | 0.00 | 23 | 1013.6 |
| 20260503215219 | 64 | 340 | 1.7 | 7.0 | 0.00 | 0.00 | 0.00 | 24 | 1013.7 |
| 20260503214717 | 64 | 333 | 1.7 | 5.2 | 0.00 | 0.00 | 0.00 | 24 | 1013.7 |
| 20260503214213 | 64 | 333 | 1.7 | 5.2 | 0.00 | 0.00 | 0.00 | 24 | 1013.5 |
| 20260503213711 | 65 | 336 | 3.5 | 5.2 | 0.00 | 0.00 | 0.00 | 26 | 1013.8 |
| 20260503213208 | 64 | 344 | 1.7 | 2.6 | 0.00 | 0.00 | 0.00 | 25 | 1013.6 |
| 20260503212705 | 64 | 292 | 0.9 | 6.1 | 0.00 | 0.00 | 0.00 | 26 | 1013.6 |
| 20260503212202 | 65 | 307 | 5.2 | 5.2 | 0.00 | 0.00 | 0.00 | 26 | 1013.6 |
| 20260503211700 | 64 | 357 | 5.2 | 6.1 | 0.00 | 0.00 | 0.00 | 24 | 1013.8 |
| 20260503211155 | 63 | 5 | 4.3 | 6.1 | 0.00 | 0.00 | 0.00 | 25 | 1014.0 |
| 20260503210652 | 63 | 355 | 4.3 | 5.2 | 0.00 | 0.00 | 0.00 | 24 | 1013.7 |
| 20260503210149 | 64 | 315 | 1.7 | 4.3 | 0.00 | 0.00 | 0.00 | 25 | 1013.8 |
| 20260503205644 | 63 | 341 | 3.5 | 4.3 | 0.00 | 0.00 | 0.00 | 25 | 1013.7 |
| 20260503205141 | 63 | 16 | 7.0 | 9.6 | 0.00 | 0.00 | 0.00 | 26 | 1013.6 |
| 20260503204637 | 64 | 354 | 3.5 | 5.2 | 0.00 | 0.00 | 0.00 | 24 | 1013.6 |
| 20260503204135 | 63 | 320 | 1.7 | 2.6 | 0.00 | 0.00 | 0.00 | 25 | 1013.9 |
| 20260503203632 | 63 | 344 | 2.6 | 4.3 | 0.00 | 0.00 | 0.00 | 26 | 1013.9 |
| 20260503203129 | 63 | 327 | 1.7 | 7.8 | 0.00 | 0.00 | 0.00 | 25 | 1013.9 |
| 20260503202627 | 62 | 351 | 5.2 | 5.2 | 0.00 | 0.00 | 0.00 | 27 | 1014.0 |
| 20260503202125 | 63 | 8 | 7.0 | 7.0 | 0.00 | 0.00 | 0.00 | 25 | 1014.0 |
| 20260503201622 | 63 | 332 | 1.7 | 5.2 | 0.00 | 0.00 | 0.00 | 27 | 1014.1 |
| 20260503201119 | 63 | 18 | 3.5 | 5.2 | 0.00 | 0.00 | 0.00 | 26 | 1014.1 |
| 20260503200616 | 63 | 339 | 1.7 | 2.6 | 0.00 | 0.00 | 0.00 | 25 | 1014.2 |
| 20260503200112 | 63 | 261 | 0.9 | 6.1 | 0.00 | 0.00 | 0.00 | 26 | 1014.3 |
| 20260503195609 | 62 | 331 | 2.6 | 2.6 | 0.00 | 0.00 | 0.00 | 29 | 1014.1 |
| 20260503195106 | 61 | 293 | 7.0 | 7.8 | 0.00 | 0.00 | 0.00 | 26 | 1014.6 |
| 20260503194603 | 62 | 1 | 3.5 | 6.1 | 0.00 | 0.00 | 0.00 | 26 | 1014.5 |
| 20260503194058 | 62 | 359 | 8.7 | 10.4 | 0.00 | 0.00 | 0.00 | 26 | 1014.8 |
| 20260503193555 | 62 | 356 | 5.2 | 9.6 | 0.00 | 0.00 | 0.00 | 26 | 1014.8 |
| 20260503193050 | 61 | 16 | 2.6 | 3.5 | 0.00 | 0.00 | 0.00 | 28 | 1014.7 |
| 20260503192546 | 62 | 8 | 5.2 | 7.8 | 0.00 | 0.00 | 0.00 | 26 | 1014.8 |
| 20260503192043 | 61 | 344 | 2.6 | 4.3 | 0.00 | 0.00 | 0.00 | 28 | 1014.9 |
| 20260503191539 | 61 | 354 | 2.6 | 6.1 | 0.00 | 0.00 | 0.00 | 28 | 1015.2 |
| 20260503191036 | 62 | 11 | 4.3 | 7.0 | 0.00 | 0.00 | 0.00 | 29 | 1015.2 |
| 20260503190533 | 61 | 308 | 6.1 | 7.0 | 0.00 | 0.00 | 0.00 | 30 | 1015.2 |
| 20260503190030 | 61 | 11 | 4.3 | 6.1 | 0.00 | 0.00 | 0.00 | 30 | 1015.3 |
| 20260503185527 | 60 | 353 | 2.6 | 5.2 | 0.00 | 0.00 | 0.00 | 30 | 1015.0 |
| 20260503185026 | 60 | 16 | 5.2 | 7.8 | 0.00 | 0.00 | 0.00 | 27 | 1015.4 |
| 20260503184523 | 60 | 301 | 4.3 | 11.3 | 0.00 | 0.00 | 0.00 | 29 | 1015.3 |
| 20260503184020 | 59 | 309 | 1.7 | 1.7 | 0.00 | 0.00 | 0.00 | 32 | 1015.3 |
| 20260503183516 | 59 | 20 | 2.6 | 3.5 | 0.00 | 0.00 | 0.00 | 34 | 1015.4 |
| 20260503183013 | 58 | 287 | 6.1 | 8.7 | 0.00 | 0.00 | 0.00 | 30 | 1015.4 |
| 20260503182512 | 59 | 183 | 2.6 | 7.0 | 0.00 | 0.00 | 0.00 | 33 | 1015.6 |
| 20260503182009 | 58 | 325 | 5.2 | 6.1 | 0.00 | 0.00 | 0.00 | 30 | 1015.8 |
| 20260503181506 | 57 | 330 | 3.5 | 4.3 | 0.00 | 0.00 | 0.00 | 33 | 1015.6 |
| 20260503181002 | 57 | 330 | 3.5 | 4.3 | 0.00 | 0.00 | 0.00 | 33 | 1015.8 |
| 20260503180500 | 57 | 350 | 5.2 | 7.0 | 0.00 | 0.00 | 0.00 | 30 | 1015.6 |
| 20260503175957 | 58 | 332 | 4.3 | 6.1 | 0.00 | 0.00 | 0.00 | 31 | 1015.9 |
| 20260503175455 | 58 | 3 | 3.5 | 8.7 | 0.00 | 0.00 | 0.00 | 31 | 1015.9 |
| 20260503174951 | 56 | 313 | 5.2 | 5.2 | 0.00 | 0.00 | 0.00 | 33 | 1015.8 |
| 20260503174449 | 56 | 308 | 5.2 | 9.6 | 0.00 | 0.00 | 0.00 | 33 | 1015.9 |
| 20260503173944 | 57 | 285 | 2.6 | 5.2 | 0.00 | 0.00 | 0.00 | 31 | 1016.0 |
| 20260503173440 | 57 | 346 | 3.5 | 13.0 | 0.00 | 0.00 | 0.00 | 32 | 1015.9 |
| 20260503172937 | 58 | 337 | 5.2 | 8.7 | 0.00 | 0.00 | 0.00 | 34 | 1016.2 |
| 20260503172434 | 59 | 351 | 5.2 | 5.2 | 0.00 | 0.00 | 0.00 | 36 | 1016.1 |
| 20260503171931 | 57 | 311 | 5.2 | 7.8 | 0.00 | 0.00 | 0.00 | 36 | 1016.3 |
| 20260503171427 | 56 | 317 | 3.5 | 7.0 | 0.00 | 0.00 | 0.00 | 36 | 1016.4 |
| 20260503170925 | 54 | 338 | 4.3 | 7.0 | 0.00 | 0.00 | 0.00 | 34 | 1016.2 |
| 20260503170421 | 55 | 335 | 1.7 | 3.5 | 0.00 | 0.00 | 0.00 | 34 | 1016.3 |
| 20260503150813 | 51 | 336 | 3.5 | 5.2 | 0.00 | 0.00 | 0.00 | 40 | 1017.1 |
| 20260503150309 | 52 | 1 | 4.3 | 4.3 | 0.00 | 0.00 | 0.00 | 44 | 1017.2 |
| 20260503140234 | 50 | 286 | 1.7 | 4.3 | 0.00 | 0.00 | 0.00 | 46 | 1017.6 |
| 20260503131203 | 47 | 8 | 7.0 | 10.4 | 0.00 | 0.00 | 0.00 | 49 | 1017.6 |
| 20260503130701 | 47 | 307 | 3.5 | 5.2 | 0.00 | 0.00 | 0.00 | 49 | 1017.6 |
| 20260503130158 | 48 | 356 | 4.3 | 9.6 | 0.00 | 0.00 | 0.00 | 48 | 1017.6 |
| 20260503120123 | 45 | 333 | 3.5 | 7.8 | 0.00 | 0.00 | 0.00 | 54 | 1017.4 |